Location: Ambatotampy
(18.8181°S, 47.6186°E)
Time: 23:36:05
(UTC+00:00)

CZ-4C R/B - Pass Details

Date: 21 January 2021
Orbit: 617 x 1384 km, 63.4° (Epoch: 24 February)

Event Time Altitude Azimuth Distance (km) Brightness Sun altitude
Exits shadow 00:57:15 25° 270° (W) 2,434 4.1 -20.3°
Maximum altitude 00:59:57 30° 241° (WSW) 2,188 4.0 -19.8°
Drops below altitude 10° 01:06:37 10° 182° (S) 3,173 5.5 -18.4°
Sets 01:09:41 0° 171° (S) 4,031 6.3 -17.8°
